Location: Brachbach
(49.1847°N, 9.7240°E)
Time: 04:27:17
(UTC+00:00)

Nadezhda 1 Rocket - Pass Details

Date: 10 August 2024
Orbit: 941 x 1004 km, 83.0° (Epoch: 12 September)

Event Time Altitude Azimuth Distance (km) Brightness Sun altitude
Rises 03:09:44 0° 139° (SE) 3,616 7.0 -8.8°
Reaches altitude 10° 03:12:56 10° 123° (ESE) 2,668 6.6 -8.4°
Maximum altitude 03:17:02 19° 80° (E) 2,078 6.8 -7.8°
Drops below altitude 10° 03:21:08 10° 37° (NE) 2,669 7.7 -7.3°
Sets 03:24:19 0° 21° (NNE) 3,618 8.0 -6.8°
